Weather History for KBRL - December, 2012

Change the Weather History Date:

Saturday, December 15, 2012

  Actual Average Record
Temperature  
Mean Temperature 46 °F 29 °F  
Max Temperature 51 °F 37 °F 61 °F (1971)
Min Temperature 41 °F 21 °F -16 °F (1989)
Degree Days  
Heating Degree Days 19 36  
Month to date heating degree days 350 506  
Since 1 July heating degree days 1589 1579  
Cooling Degree Days 0 0  
Month to date cooling degree days 0 0  
Year to date cooling degree days 1287 1207  
Moisture  
Dew Point 44 °F    
Average Humidity 88    
Maximum Humidity 96    
Minimum Humidity 80    
Precipitation  
Precipitation 0.46 in 0.07 in 1.95 in (1987)
Month to date precipitation 0.82 1.11  
Year to date precipitation 23.21 37.50  
Sea Level Pressure  
Sea Level Pressure 29.62 in    
Wind  
Wind Speed 12 mph (SSW)    
Max Wind Speed 18 mph    
Max Gust Speed 26 mph    
Visibility 8 miles    
Events Rain    
T = Trace of Precipitation, MM = Missing Value Source: NWS Daily Summary

Daily Weather History Graph

Daily Weather History Graph

Search for Another Location

Airport or City:

Trip Planner

Search our weather history database for the weather conditions in past years. The results will help you decide how hot, cold, wet, or windy it might be!

Date:

Astronomy

Dec. 15, 2012 Rise Set
Actual Time 7:21 AM CST 4:37 PM CST
Civil Twilight 6:50 AM CST 5:08 PM CST
Nautical Twilight 6:16 AM CST 5:43 PM CST
Astronomical Twilight 5:43 AM CST 6:16 PM CST
Moon 9:14 AM CST (12/15) 7:43 PM CST (12/15)
Length of Visible Light 10h 17m
Length of Day
9h 15m
Waxing Crescent, 8% of the Moon is Illuminated
Dec 15
Waxing Crescent
Dec 19
First Quarter
Dec 28
Full
Jan 4
Last Quarter
Jan 11
New

Hourly Weather History & Observations

Time (CST) Temp. Windchill Dew Point Humidity Pressure Visibility Wind Dir Wind Speed Gust Speed Precip Events Conditions
12:53 AM 44.1 °F 39.0 °F 36.0 °F 73% 29.87 in 10.0 mi SSE 9.2 mph - 0.01 in   Overcast
1:53 AM 43.0 °F 36.0 °F 37.0 °F 80% 29.86 in 10.0 mi South 13.8 mph - 0.00 in Rain Light Rain
2:53 AM 41.0 °F 34.3 °F 37.9 °F 89% 29.83 in 4.0 mi SSE 11.5 mph - 0.09 in Rain Rain
3:24 AM 41.0 °F 34.7 °F 39.2 °F 93% 29.79 in 5.0 mi SSE 10.4 mph - 0.13 in Rain Rain
3:50 AM 41.0 °F 33.9 °F 39.2 °F 93% 29.75 in 10.0 mi SE 12.7 mph - 0.15 in Rain Light Rain
3:53 AM 41.0 °F 33.9 °F 39.0 °F 93% 29.75 in 10.0 mi SSE 12.7 mph - 0.15 in Rain Light Rain
4:16 AM 41.0 °F 33.9 °F 39.2 °F 93% 29.75 in 4.0 mi SSE 12.7 mph - 0.03 in Rain Rain
4:53 AM 42.1 °F 33.9 °F 41.0 °F 96% 29.68 in 4.0 mi ESE 17.3 mph 23.0 mph 0.13 in Rain Light Rain
5:53 AM 43.0 °F 36.4 °F 42.1 °F 97% 29.68 in 10.0 mi SSE 12.7 mph - 0.01 in   Overcast
6:15 AM 42.8 °F 36.6 °F 42.8 °F 100% 29.68 in 2.5 mi SSE 11.5 mph - 0.01 in Rain Light Rain
6:49 AM 44.6 °F 38.4 °F 42.8 °F 93% 29.66 in 3.0 mi SSE 12.7 mph - 0.05 in Rain Light Rain
6:53 AM 44.1 °F 37.1 °F 42.1 °F 93% 29.66 in 3.0 mi SSE 15.0 mph - 0.05 in Rain Light Rain
7:53 AM 45.0 °F 38.2 °F 43.0 °F 93% 29.65 in 5.0 mi SSE 15.0 mph - 0.00 in   Overcast
8:53 AM 46.0 °F 40.2 °F 44.1 °F 93% 29.62 in 6.0 mi SSE 12.7 mph 21.9 mph N/A   Overcast
9:53 AM 46.9 °F - 45.0 °F 93% 29.60 in 7.0 mi SSE 12.7 mph - 0.01 in Rain Light Rain
10:40 AM 48.2 °F - 44.6 °F 87% 29.56 in 8.0 mi South 15.0 mph 26.5 mph 0.00 in Rain Light Rain
10:49 AM 48.2 °F - 46.4 °F 93% 29.56 in 5.0 mi SSE 15.0 mph 23.0 mph 0.01 in Rain Light Rain
10:53 AM 48.0 °F - 46.0 °F 93% 29.56 in 6.0 mi South 15.0 mph 23.0 mph 0.01 in Rain Light Rain
11:05 AM 48.2 °F - 46.4 °F 93% 29.55 in 7.0 mi SSE 13.8 mph 17.3 mph 0.00 in   Overcast
11:27 AM 48.2 °F - 46.4 °F 93% 29.54 in 8.0 mi South 16.1 mph 20.7 mph 0.00 in   Overcast
11:53 AM 48.9 °F - 46.9 °F 93% 29.54 in 6.0 mi South 15.0 mph 21.9 mph 0.00 in Rain Light Rain
12:20 PM 48.2 °F - 46.4 °F 93% 29.53 in 2.0 mi SW 9.2 mph - 0.01 in Rain Light Rain
12:45 PM 48.2 °F - 48.2 °F 100% 29.53 in 4.0 mi SSW 11.5 mph - 0.01 in Rain Light Rain
12:53 PM 48.9 °F - 48.0 °F 97% 29.53 in 6.0 mi South 9.2 mph - 0.01 in   Overcast
1:01 PM 48.2 °F - 48.2 °F 100% 29.52 in 8.0 mi SSW 9.2 mph - N/A   Overcast
1:33 PM 50.0 °F - 48.2 °F 94% 29.52 in 10.0 mi SSW 6.9 mph - N/A   Overcast
1:53 PM 50.0 °F - 48.0 °F 93% 29.53 in 10.0 mi SSW 8.1 mph - N/A   Overcast
2:53 PM 51.1 °F - 46.9 °F 86% 29.53 in 10.0 mi SW 11.5 mph - N/A   Overcast
3:53 PM 51.1 °F - 46.0 °F 83% 29.56 in 10.0 mi SW 9.2 mph - N/A   Overcast
4:08 PM 51.8 °F - 46.4 °F 82% 29.56 in 10.0 mi SW 10.4 mph - N/A   Overcast
4:53 PM 50.0 °F - 45.0 °F 83% 29.57 in 10.0 mi SW 9.2 mph - N/A   Overcast
5:01 PM 50.0 °F - 44.6 °F 82% 29.56 in 10.0 mi SW 9.2 mph - N/A   Overcast
5:16 PM 50.0 °F - 44.6 °F 82% 29.57 in 10.0 mi SW 9.2 mph - N/A   Overcast
5:46 PM 50.0 °F - 44.6 °F 82% 29.58 in 10.0 mi SW 13.8 mph - N/A   Overcast
5:53 PM 50.0 °F - 46.0 °F 86% 29.59 in 10.0 mi SW 13.8 mph - N/A   Overcast
6:53 PM 50.0 °F - 45.0 °F 83% 29.60 in 10.0 mi SW 9.2 mph - N/A   Overcast
7:53 PM 50.0 °F - 45.0 °F 83% 29.61 in 10.0 mi SW 9.2 mph - N/A   Overcast
8:53 PM 48.9 °F - 45.0 °F 86% 29.62 in 10.0 mi SW 8.1 mph - N/A   Overcast
9:15 PM 48.2 °F - 44.6 °F 87% 29.61 in 10.0 mi SW 10.4 mph - N/A   Overcast
9:28 PM 48.2 °F - 44.6 °F 87% 29.60 in 10.0 mi WSW 10.4 mph - N/A   Overcast
9:40 PM 48.2 °F - 44.6 °F 87% 29.60 in 10.0 mi SW 9.2 mph - N/A   Overcast
9:53 PM 48.9 °F - 45.0 °F 86% 29.61 in 10.0 mi SW 9.2 mph - N/A   Overcast
10:53 PM 48.9 °F - 44.1 °F 83% 29.62 in 10.0 mi WSW 11.5 mph - N/A   Overcast
11:26 PM 48.2 °F - 44.6 °F 87% 29.62 in 10.0 mi WSW 11.5 mph - N/A   Overcast
11:53 PM 48.0 °F - 43.0 °F 83% 29.62 in 10.0 mi WSW 10.4 mph - N/A   Overcast